Whidbey Island, WA

2:46 AM PDT on August 18, 2017 (GMT -0700)
Whidbey Island Naval Air Station

Weather History for KNUW - February, 2013

Change the Weather History Date:

Tuesday, February 26, 2013

  Actual Average Record
Temperature  
Mean Temperature 42 °F -  
Max Temperature 46 °F 47 °F 55 °F (2004)
Min Temperature 39 °F 33 °F 19 °F (2011)
Degree Days  
Heating Degree Days 22    
Moisture  
Dew Point 34 °F    
Average Humidity 70    
Maximum Humidity 82    
Minimum Humidity 56    
Precipitation  
Precipitation 0.00 in - - ()
Sea Level Pressure  
Sea Level Pressure 30.26 in    
Wind  
Wind Speed 16 mph (SE)    
Max Wind Speed 31 mph    
Max Gust Speed 39 mph    
Visibility 10 miles    
Events      
Averages and records for this station are not official NWS values.
T = Trace of Precipitation, MM = Missing Value Source: NWS Daily Summary

Daily Weather History Graph

Daily Weather History Graph

Search for Another Location

Airport or City:

Trip Planner

Search our weather history database for the weather conditions in past years. The results will help you decide how hot, cold, wet, or windy it might be!

Date:

Astronomy

Feb. 26, 2013 Rise Set
Actual Time 6:57 AM PST 5:50 PM PST
Civil Twilight 6:25 AM PST 6:22 PM PST
Nautical Twilight 5:49 AM PST 6:58 PM PST
Astronomical Twilight 5:13 AM PST 7:34 PM PST
Moon 7:24 PM PST (2/26) 6:54 AM PST (2/26)
Length of Visible Light 11h 56m
Length of Day
10h 53m
Full, 99% of the Moon is Illuminated
Feb 26
Full
Mar 4
Last Quarter
Mar 11
New
Mar 19
First Quarter
Mar 27
Full

Hourly Weather History & Observations

Time (PST) Temp. Windchill Dew Point Humidity Pressure Visibility Wind Dir Wind Speed Gust Speed Precip Events Conditions
12:56 AM 44.1 °F 37.4 °F 34.0 °F 68% 30.30 in 10.0 mi WSW 13.8 mph - N/A   Mostly Cloudy
1:56 AM 42.1 °F 36.6 °F 34.0 °F 73% 30.32 in 10.0 mi South 9.2 mph - N/A   Overcast
2:56 AM 41.0 °F 35.2 °F 35.1 °F 79% 30.32 in 10.0 mi South 9.2 mph - N/A   Mostly Cloudy
3:56 AM 39.0 °F 31.8 °F 34.0 °F 82% 30.32 in 10.0 mi SSE 11.5 mph - N/A   Mostly Cloudy
4:56 AM 39.0 °F 32.8 °F 34.0 °F 82% 30.33 in 10.0 mi SE 9.2 mph - N/A   Mostly Cloudy
5:56 AM 39.0 °F 31.0 °F 34.0 °F 82% 30.34 in 10.0 mi SE 13.8 mph - N/A   Mostly Cloudy
6:56 AM 39.0 °F 31.4 °F 33.1 °F 79% 30.33 in 9.0 mi SE 12.7 mph - N/A   Overcast
7:56 AM 39.9 °F 32.5 °F 34.0 °F 79% 30.34 in 9.0 mi ESE 12.7 mph - N/A   Overcast
8:56 AM 41.0 °F 33.1 °F 35.1 °F 79% 30.34 in 9.0 mi ESE 15.0 mph - N/A   Overcast
9:56 AM 43.0 °F 35.1 °F 35.1 °F 74% 30.32 in 9.0 mi SE 17.3 mph 25.3 mph N/A   Overcast
10:56 AM 44.1 °F 37.1 °F 35.1 °F 71% 30.30 in 9.0 mi ESE 15.0 mph 21.9 mph N/A   Overcast
11:56 AM 45.0 °F 37.9 °F 35.1 °F 68% 30.28 in 10.0 mi SE 16.1 mph 24.2 mph N/A   Overcast
12:24 PM 46.4 °F 39.0 °F 35.6 °F 66% 30.26 in 10.0 mi SE 19.6 mph 24.2 mph N/A   Overcast
12:56 PM 46.0 °F 38.5 °F 35.1 °F 66% 30.27 in 10.0 mi SE 19.6 mph 24.2 mph N/A   Overcast
1:56 PM 46.9 °F - 32.0 °F 56% 30.25 in 10.0 mi SSE 18.4 mph 27.6 mph N/A   Overcast
2:56 PM 46.0 °F 38.0 °F 32.0 °F 58% 30.24 in 10.0 mi SSE 21.9 mph 28.8 mph N/A   Overcast
3:56 PM 46.0 °F 39.0 °F 32.0 °F 58% 30.22 in 10.0 mi SE 17.3 mph 25.3 mph N/A   Overcast
4:56 PM 46.0 °F 38.8 °F 30.9 °F 56% 30.20 in 10.0 mi SE 18.4 mph 26.5 mph N/A   Overcast
5:56 PM 46.0 °F 37.8 °F 32.0 °F 58% 30.18 in 10.0 mi SE 23.0 mph 31.1 mph N/A   Mostly Cloudy
6:56 PM 45.0 °F 35.6 °F 35.1 °F 68% 30.17 in 10.0 mi SE 27.6 mph 36.8 mph N/A   Mostly Cloudy
7:56 PM 45.0 °F 35.8 °F 35.1 °F 68% 30.17 in 10.0 mi SSE 26.5 mph 35.7 mph N/A   Mostly Cloudy
8:56 PM 44.1 °F 33.8 °F 34.0 °F 68% 30.17 in 10.0 mi SSE 31.1 mph 39.1 mph N/A   Mostly Cloudy
9:56 PM 43.0 °F 33.1 °F 34.0 °F 71% 30.16 in 10.0 mi SE 26.5 mph 34.5 mph N/A   Mostly Cloudy
10:56 PM 44.1 °F 35.0 °F 35.1 °F 71% 30.19 in 10.0 mi SSE 24.2 mph 32.2 mph N/A   Overcast
11:56 PM 43.0 °F 33.8 °F 35.1 °F 74% 30.20 in 10.0 mi South 23.0 mph 28.8 mph N/A   Overcast